Previsão horária em Cedro

Hoje, 2 Agosto, Segunda-feira

Tempo Temperatura Precipitação Vento Pressão Humidade
00:00 +23°C° 0 mm 5 m/s 741 mmHg 66%
01:00 +22°C° 0 mm 4 m/s 741 mmHg 69%
02:00 +21°C° 0 mm 4 m/s 741 mmHg 71%
03:00 +21°C° 0 mm 4 m/s 741 mmHg 73%
04:00 +20°C° 0 mm 4 m/s 741 mmHg 75%
05:00 +20°C° 0 mm 4 m/s 741 mmHg 77%
06:00 +19°C° 0 mm 3 m/s 742 mmHg 79%
07:00 +22°C° 0 mm 4 m/s 742 mmHg 67%
08:00 +25°C° 0 mm 4 m/s 742 mmHg 56%
09:00 +27°C° 0 mm 5 m/s 743 mmHg 44%
10:00 +30°C° 0 mm 4 m/s 742 mmHg 37%
11:00 +33°C° 0 mm 4 m/s 741 mmHg 30%
12:00 +35°C° 0 mm 3 m/s 741 mmHg 22%
13:00 +36°C° 0 mm 3 m/s 740 mmHg 21%
14:00 +37°C° 0 mm 3 m/s 739 mmHg 20%
15:00 +37°C° 0 mm 3 m/s 738 mmHg 18%
16:00 +35°C° 0 mm 3 m/s 738 mmHg 21%
17:00 +31°C° 0 mm 2 m/s 738 mmHg 25%
18:00 +29°C° 0 mm 2 m/s 738 mmHg 28%
19:00 +28°C° 0 mm 2 m/s 739 mmHg 29%
20:00 +27°C° 0 mm 3 m/s 739 mmHg 31%
21:00 +26°C° 0 mm 3 m/s 740 mmHg 33%
22:00 +26°C° 0 mm 3 m/s 740 mmHg 43%
23:00 +25°C° 0 mm 3 m/s 740 mmHg 54%

Amanhã, 3 Agosto, Terça-feira

Tempo Temperatura Precipitação Vento Pressão Humidade
00:00 +24°C° 0 mm 3 m/s 740 mmHg 64%
01:00 +22°C° 0 mm 3 m/s 740 mmHg 69%
02:00 +22°C° 0 mm 3 m/s 740 mmHg 74%
03:00 +21°C° 0 mm 3 m/s 739 mmHg 80%
04:00 +21°C° 0 mm 4 m/s 740 mmHg 77%
05:00 +22°C° 0 mm 4 m/s 740 mmHg 75%
06:00 +22°C° 0 mm 4 m/s 740 mmHg 73%
07:00 +25°C° 0 mm 4 m/s 741 mmHg 66%
08:00 +27°C° 0 mm 4 m/s 741 mmHg 58%
09:00 +28°C° 0 mm 4 m/s 742 mmHg 51%
10:00 +30°C° 0 mm 4 m/s 741 mmHg 45%
11:00 +33°C° 0 mm 4 m/s 741 mmHg 40%
12:00 +34°C° 0 mm 4 m/s 740 mmHg 35%
13:00 +34°C° 0 mm 4 m/s 739 mmHg 34%
14:00 +35°C° 0 mm 4 m/s 739 mmHg 33%
15:00 +35°C° 0 mm 4 m/s 738 mmHg 33%
16:00 +33°C° 0 mm 4 m/s 738 mmHg 38%
17:00 +30°C° 0 mm 4 m/s 739 mmHg 42%
18:00 +28°C° 0 mm 4 m/s 739 mmHg 47%
19:00 +27°C° 0 mm 3 m/s 739 mmHg 52%
20:00 +26°C° 0 mm 2 m/s 740 mmHg 56%
21:00 +25°C° 0 mm 2 m/s 740 mmHg 61%
22:00 +24°C° 0 mm 2 m/s 740 mmHg 64%
23:00 +24°C° 0 mm 2 m/s 740 mmHg 68%

Depois de amanhã, 4 Agosto, Quarta-feira

Tempo Temperatura Precipitação Vento Pressão Humidade
00:00 +22°C° 0 mm 3 m/s 740 mmHg 71%
01:00 +22°C° 0 mm 3 m/s 740 mmHg 74%
02:00 +22°C° 0 mm 3 m/s 739 mmHg 77%
03:00 +21°C° 0 mm 3 m/s 739 mmHg 80%
04:00 +21°C° 0 mm 3 m/s 740 mmHg 79%
05:00 +20°C° 0 mm 3 m/s 740 mmHg 79%
06:00 +20°C° 0 mm 3 m/s 740 mmHg 79%
07:00 +24°C° 0 mm 3 m/s 741 mmHg 66%
08:00 +26°C° 0 mm 3 m/s 741 mmHg 54%
09:00 +29°C° 0 mm 4 m/s 742 mmHg 41%
10:00 +32°C° 0 mm 4 m/s 741 mmHg 36%
11:00 +34°C° 0 mm 3 m/s 740 mmHg 31%
12:00 +36°C° 0 mm 3 m/s 739 mmHg 26%
13:00 +37°C° 0 mm 3 m/s 739 mmHg 24%
14:00 +37°C° 0 mm 3 m/s 738 mmHg 22%
15:00 +38°C° 0 mm 3 m/s 737 mmHg 21%
16:00 +36°C° 0 mm 3 m/s 738 mmHg 23%
17:00 +34°C° 0 mm 3 m/s 738 mmHg 25%
18:00 +31°C° 0 mm 3 m/s 738 mmHg 27%
19:00 +30°C° 0 mm 3 m/s 739 mmHg 32%
20:00 +29°C° 0 mm 4 m/s 740 mmHg 36%
21:00 +28°C° 0 mm 5 m/s 740 mmHg 40%
22:00 +27°C° 0 mm 4 m/s 740 mmHg 48%
23:00 +26°C° 0 mm 4 m/s 741 mmHg 56%

5 Agosto, Quinta-feira

Tempo Temperatura Precipitação Vento Pressão Humidade
00:00 +24°C° 0 mm 3 m/s 741 mmHg 63%
01:00 +24°C° 0 mm 3 m/s 741 mmHg 65%
02:00 +22°C° 0 mm 3 m/s 741 mmHg 67%
03:00 +21°C° 0 mm 3 m/s 741 mmHg 68%
04:00 +21°C° 0 mm 3 m/s 741 mmHg 71%
05:00 +20°C° 0 mm 3 m/s 741 mmHg 73%
06:00 +19°C° 0 mm 3 m/s 741 mmHg 75%
07:00 +22°C° 0 mm 3 m/s 742 mmHg 65%
08:00 +25°C° 0 mm 4 m/s 742 mmHg 55%
09:00 +28°C° 0 mm 4 m/s 743 mmHg 45%
10:00 +30°C° 0 mm 3 m/s 742 mmHg 39%
11:00 +34°C° 0 mm 3 m/s 741 mmHg 33%
12:00 +36°C° 0 mm 2 m/s 741 mmHg 27%
13:00 +37°C° 0 mm 2 m/s 740 mmHg 25%
14:00 +37°C° 0 mm 2 m/s 739 mmHg 23%
15:00 +38°C° 0 mm 2 m/s 738 mmHg 21%
16:00 +36°C° 0 mm 2 m/s 738 mmHg 24%
17:00 +34°C° 0 mm 2 m/s 739 mmHg 27%
18:00 +31°C° 0 mm 1 m/s 739 mmHg 29%
19:00 +31°C° 0 mm 2 m/s 739 mmHg 31%
20:00 +31°C° 0 mm 3 m/s 740 mmHg 33%
21:00 +30°C° 0 mm 3 m/s 741 mmHg 34%
22:00 +29°C° 0 mm 3 m/s 741 mmHg 40%
23:00 +29°C° 0 mm 4 m/s 741 mmHg 46%

6 Agosto, Sexta-feira

Tempo Temperatura Precipitação Vento Pressão Humidade
00:00 +28°C° 0 mm 4 m/s 741 mmHg 52%
01:00 +26°C° 0 mm 4 m/s 741 mmHg 59%
02:00 +25°C° 0 mm 3 m/s 741 mmHg 65%
03:00 +24°C° 0 mm 3 m/s 741 mmHg 72%
04:00 +22°C° 0 mm 3 m/s 741 mmHg 74%
05:00 +22°C° 0 mm 3 m/s 742 mmHg 76%
06:00 +22°C° 0 mm 3 m/s 742 mmHg 78%
07:00 +25°C° 0 mm 4 m/s 742 mmHg 68%
08:00 +27°C° 0 mm 4 m/s 743 mmHg 58%
09:00 +29°C° 0 mm 5 m/s 743 mmHg 48%
10:00 +30°C° 0 mm 5 m/s 742 mmHg 46%
11:00 +32°C° 0 mm 5 m/s 742 mmHg 43%
12:00 +33°C° 0 mm 5 m/s 742 mmHg 41%
13:00 +33°C° 0 mm 4 m/s 741 mmHg 38%
14:00 +34°C° 0 mm 3 m/s 740 mmHg 36%
15:00 +35°C° 0 mm 3 m/s 739 mmHg 34%
16:00 +34°C° 0 mm 3 m/s 739 mmHg 34%
17:00 +33°C° 0 mm 3 m/s 740 mmHg 35%
18:00 +31°C° 0 mm 3 m/s 740 mmHg 35%
19:00 +31°C° 0 mm 3 m/s 740 mmHg 40%
20:00 +30°C° 0 mm 4 m/s 741 mmHg 44%
21:00 +29°C° 0 mm 5 m/s 741 mmHg 49%
22:00 +28°C° 0 mm 4 m/s 741 mmHg 53%
23:00 +26°C° 0 mm 4 m/s 741 mmHg 57%

7 Agosto, Sábado

Tempo Temperatura Precipitação Vento Pressão Humidade
00:00 +25°C° 0 mm 4 m/s 741 mmHg 61%
01:00 +23°C° 0 mm 4 m/s 741 mmHg 63%
02:00 +22°C° 0 mm 4 m/s 741 mmHg 65%
03:00 +21°C° 0 mm 4 m/s 741 mmHg 67%
04:00 +22°C° 0 mm 4 m/s 741 mmHg 67%
05:00 +22°C° 0 mm 4 m/s 741 mmHg 67%
06:00 +22°C° 0 mm 4 m/s 741 mmHg 66%
07:00 +25°C° 0 mm 4 m/s 742 mmHg 61%
08:00 +27°C° 0 mm 5 m/s 742 mmHg 55%
09:00 +28°C° 0 mm 5 m/s 743 mmHg 49%
10:00 +30°C° 0 mm 5 m/s 742 mmHg 44%
11:00 +33°C° 0 mm 5 m/s 741 mmHg 39%
12:00 +34°C° 0 mm 5 m/s 741 mmHg 34%
13:00 +34°C° 0 mm 5 m/s 740 mmHg 33%
14:00 +34°C° 0 mm 5 m/s 740 mmHg 33%
15:00 +34°C° 0 mm 5 m/s 739 mmHg 32%
16:00 +33°C° 0 mm 5 m/s 739 mmHg 37%
17:00 +30°C° 0 mm 4 m/s 739 mmHg 41%
18:00 +28°C° 0 mm 4 m/s 740 mmHg 46%
19:00 +28°C° 0 mm 4 m/s 740 mmHg 51%
20:00 +27°C° 0 mm 4 m/s 741 mmHg 56%
21:00 +26°C° 0 mm 4 m/s 741 mmHg 61%
22:00 +26°C° 0 mm 4 m/s 741 mmHg 64%
23:00 +25°C° 0 mm 4 m/s 742 mmHg 66%
Mostrar mais

Necessitamos do seu Consentimento

A Meteoprog e os seus Fornecedores de Serviços podem armazenar e aceder a dados pessoais como cookies, identificadores do dispositivo ou outras tecnologias semelhantes existentes no seu dispositivo e processar estes dados para personalizar conteúdos e anúncios, assim como funcionalidades nas redes sociais e análise de tráfego.

  • Armazenar e/ou aceder a informações no seu dispositivo

    Os cookies, identificadores do dispositivo ou outras informações podem ser armazenados ou acedidos no seu dispositivo, para os fins acima indicados.

  • Anúncios e conteúdos personalizados, medição de anúncios e conteúdos, dados sobre o público-alvo e desenvolvimento de produtos

    Os anúncios e os conteúdos podem ser personalizados com base num perfil. Podem ser adicionados dados adicionais para uma maior personalização dos anúncios e dos conteúdos. A eficácia dos anúncios e dos conteúdos pode ser medida. Podem ser obtidas informações sobre o público que visualizou os anúncios e os conteúdos. Estes dados podem ser usados para desenvolver ou melhorar sistemas, softwares ou a experiência do utilizador.

Ao clicar em "Eu concordo”, permitirá o uso de cookies, identificadores do dispositivo e web beacons mencionados ou outras tecnologias semelhantes. As configurações do navegador do seu dispositivo podem ser alteradas.

Para certos fins, podem ser invocados interesses legítimos ao invés de consentimento. Pode ler mais informação sobre este assunto na nossa Política de Privacidade e Cookies.